Location: Bathurst
(33.4193°S, 149.5775°E)
Time: 09:44:05
(UTC+10:00)

Vanguard 1 Rocket - Pass Details

Date: 14 June 2021
Orbit: 650 x 4226 km, 34.3° (Epoch: 02 August)

Event Time Altitude Azimuth Distance (km) Brightness Sun altitude
Rises 13:44:32 0° 265° (W) 5,391 11.6 28.3°
Reaches altitude 10° 13:48:50 10° 264° (W) 3,839 11.0 27.9°
Maximum altitude 13:57:40 87° 174° (S) 998 8.0 27.0°
Drops below altitude 10° 14:02:46 10° 84° (E) 2,279 9.3 26.4°
Sets 14:04:45 0° 83° (E) 3,074 9.9 26.2°
